VK6JI-11 Weather Reports


Display with metric or nautical units.
time (UTC)temp
F
wind
direction
speed
MPH
gust
MPH
rain 1hr
in
rain 24hr
in
rain mn
in
humidity
%
barometer
mb
20260505211334 56 103 2.0 3.0 0.00 0.00 0.00 80 1026.5
20260505211135 56 103 2.0 3.0 0.00 0.00 0.00 80 1026.6
20260505210934 56 103 1.0 3.0 0.00 0.00 0.00 80 1026.5
20260505210734 56 103 1.0 3.0 0.00 0.00 0.00 80 1026.5
20260505210538 56 104 1.0 3.0 0.00 0.00 0.00 80 1026.5
20260505210334 56 113 1.0 6.0 0.00 0.00 0.00 79 1026.5
20260505210137 56 25 1.0 6.0 0.00 0.00 0.00 79 1026.4
20260505205934 56 25 1.0 6.0 0.00 0.00 0.00 79 1026.4
20260505205734 56 25 1.0 6.0 0.00 0.00 0.00 79 1026.4
20260505205534 56 25 2.0 6.0 0.00 0.00 0.00 80 1026.4
20260505205333 56 106 1.0 3.0 0.00 0.00 0.00 79 1026.5
20260505205133 56 106 2.0 3.0 0.00 0.00 0.00 80 1026.4
20260505204929 56 106 1.0 4.0 0.00 0.00 0.00 80 1026.4
20260505204706 56 107 0.0 4.0 0.00 0.00 0.00 80 1026.4
20260505204505 56 107 1.0 4.0 0.00 0.00 0.00 79 1026.4
20260505204305 56 107 2.0 4.0 0.00 0.00 0.00 79 1026.3
20260505204106 56 107 1.0 3.0 0.00 0.00 0.00 79 1026.3
20260505203904 56 96 1.0 4.0 0.00 0.00 0.00 79 1026.4
20260505203705 56 96 0.0 4.0 0.00 0.00 0.00 79 1026.3
20260505203507 56 96 1.0 4.0 0.00 0.00 0.00 79 1026.3
20260505203306 56 96 1.0 5.0 0.00 0.00 0.00 79 1026.3
20260505203105 56 96 2.0 5.0 0.00 0.00 0.00 79 1026.3
20260505202905 56 79 1.0 5.0 0.00 0.00 0.00 79 1026.2
20260505202705 56 77 1.0 5.0 0.00 0.00 0.00 79 1026.3
20260505202505 56 77 1.0 5.0 0.00 0.00 0.00 79 1026.2
20260505202306 56 124 1.0 3.0 0.00 0.00 0.00 79 1026.2
20260505202104 56 124 1.0 3.0 0.00 0.00 0.00 79 1026.2
20260505201904 56 124 1.0 3.0 0.00 0.00 0.00 79 1026.1
20260505201702 56 125 1.0 3.0 0.00 0.00 0.00 79 1026.2
20260505201455 56 125 1.0 3.0 0.00 0.00 0.00 79 1026.2
20260505201255 56 125 0.0 3.0 0.00 0.00 0.00 79 1026.2
20260505201055 56 125 1.0 3.0 0.00 0.00 0.00 79 1026.1
20260505200854 56 125 1.0 3.0 0.00 0.00 0.00 79 1026.1
20260505200655 56 134 0.0 3.0 0.00 0.00 0.00 79 1026.1
20260505200454 56 134 1.0 3.0 0.00 0.00 0.00 79 1026.1
20260505200254 56 134 1.0 3.0 0.00 0.00 0.00 79 1026.0
20260505200053 56 135 0.0 3.0 0.00 0.00 0.00 79 1026.1
20260505195852 56 135 0.0 3.0 0.00 0.00 0.00 79 1026.2
20260505195651 56 135 1.0 3.0 0.00 0.00 0.00 79 1026.1
20260505195451 56 137 0.0 3.0 0.00 0.00 0.00 79 1026.1
20260505195251 56 137 0.0 3.0 0.00 0.00 0.00 79 1026.1
20260505195051 56 137 0.0 3.0 0.00 0.00 0.00 79 1026.1
20260505194850 56 137 0.0 3.0 0.00 0.00 0.00 78 1026.1
20260505194649 56 137 1.0 2.0 0.00 0.00 0.00 78 1026.1
20260505194449 56 138 0.0 2.0 0.00 0.00 0.00 78 1026.2
20260505194248 56 138 0.0 2.0 0.00 0.00 0.00 78 1026.1
20260505194049 56 138 0.0 2.0 0.00 0.00 0.00 78 1026.1
20260505193844 56 138 0.0 2.0 0.00 0.00 0.00 78 1026.2
20260505193645 56 138 0.0 2.0 0.00 0.00 0.00 78 1026.2
20260505193444 56 138 0.0 2.0 0.00 0.00 0.00 78 1026.1
20260505193243 56 138 0.0 2.0 0.00 0.00 0.00 78 1026.2
20260505193044 56 138 0.0 2.0 0.00 0.00 0.00 78 1026.2
20260505192843 56 138 0.0 2.0 0.00 0.00 0.00 78 1026.2
20260505192642 56 138 1.0 2.0 0.00 0.00 0.00 78 1026.2
20260505192442 56 138 1.0 2.0 0.00 0.00 0.00 78 1026.1
20260505192241 56 166 0.0 2.0 0.00 0.00 0.00 78 1026.2
20260505192041 56 166 0.0 2.0 0.00 0.00 0.00 77 1026.2
20260505191841 56 166 0.0 2.0 0.00 0.00 0.00 77 1026.2
20260505191641 56 168 0.0 2.0 0.00 0.00 0.00 77 1026.2
20260505191440 56 168 1.0 2.0 0.00 0.00 0.00 77 1026.2
20260505191239 56 134 0.0 2.0 0.00 0.00 0.00 77 1026.1
20260505191039 56 134 0.0 2.0 0.00 0.00 0.00 76 1026.1
20260505190839 56 134 0.0 3.0 0.00 0.00 0.00 76 1026.1
20260505190638 56 134 0.0 3.0 0.00 0.00 0.00 76 1026.1
20260505190437 56 134 0.0 3.0 0.00 0.00 0.00 76 1026.1
20260505190237 57 134 0.0 3.0 0.00 0.00 0.00 76 1026.0
20260505190037 57 134 0.0 3.0 0.00 0.00 0.00 76 1026.0
20260505185805 57 134 0.0 2.0 0.00 0.00 0.00 76 1026.0
20260505185605 57 134 0.0 2.0 0.00 0.00 0.00 76 1026.0
20260505185405 57 134 0.0 2.0 0.00 0.00 0.00 76 1026.0
20260505185205 57 134 0.0 2.0 0.00 0.00 0.00 75 1026.0
20260505185006 57 134 0.0 2.0 0.00 0.00 0.00 76 1026.0
20260505184804 57 134 0.0 2.0 0.00 0.00 0.00 75 1026.0
20260505184605 57 134 0.0 2.0 0.00 0.00 0.00 75 1026.0
20260505184405 57 134 0.0 2.0 0.00 0.00 0.00 75 1026.1
20260505184205 57 134 0.0 2.0 0.00 0.00 0.00 75 1026.1
20260505184006 57 134 1.0 2.0 0.00 0.00 0.00 75 1026.1
20260505183807 57 134 1.0 3.0 0.00 0.00 0.00 75 1026.1
20260505183605 57 137 1.0 3.0 0.00 0.00 0.00 75 1026.1
20260505183405 57 135 1.0 3.0 0.00 0.00 0.00 74 1026.1
20260505183204 57 135 0.0 3.0 0.00 0.00 0.00 74 1026.2
20260505183005 57 135 1.0 3.0 0.00 0.00 0.00 74 1026.2
20260505182805 57 135 0.0 2.0 0.00 0.00 0.00 74 1026.2
20260505182604 58 135 0.0 2.0 0.00 0.00 0.00 74 1026.2
20260505182405 58 135 0.0 2.0 0.00 0.00 0.00 74 1026.3
20260505182142 58 135 0.0 2.0 0.00 0.00 0.00 74 1026.3
20260505181941 58 135 0.0 2.0 0.00 0.00 0.00 74 1026.2
20260505181740 58 135 0.0 2.0 0.00 0.00 0.00 74 1026.2
20260505181541 58 135 0.0 2.0 0.00 0.00 0.00 74 1026.2
20260505181339 58 135 1.0 4.0 0.00 0.00 0.00 74 1026.1
20260505181140 58 135 1.0 4.0 0.00 0.00 0.00 74 1026.2
20260505180935 58 84 1.0 4.0 0.00 0.00 0.00 74 1026.2
20260505180736 58 86 1.0 4.0 0.00 0.00 0.00 74 1026.1
20260505180535 58 76 1.0 4.0 0.00 0.00 0.00 74 1026.2
20260505180335 58 75 2.0 3.0 0.00 0.00 0.00 74 1026.1
20260505180133 58 44 1.0 2.0 0.00 0.00 0.00 74 1026.1
20260505175935 58 32 0.0 9.0 0.00 0.00 0.00 74 1026.2
20260505175734 58 32 1.0 9.0 0.00 0.00 0.00 74 1026.1
20260505175533 58 32 0.0 9.0 0.00 0.00 0.00 74 1026.1
20260505175330 58 32 1.0 9.0 0.00 0.00 0.00 74 1026.1
20260505175129 58 32 2.0 9.0 0.00 0.00 0.00 74 1026.1
20260505174929 58 130 1.0 3.0 0.00 0.00 0.00 74 1026.1
20260505174729 58 130 2.0 3.0 0.00 0.00 0.00 74 1026.0
20260505174529 58 73 2.0 3.0 0.00 0.00 0.00 75 1026.0
20260505174329 58 70 1.0 3.0 0.00 0.00 0.00 75 1026.0
20260505174129 58 70 2.0 3.0 0.00 0.00 0.00 75 1026.0
20260505173929 58 70 1.0 3.0 0.00 0.00 0.00 75 1026.0
20260505173729 57 70 1.0 3.0 0.00 0.00 0.00 75 1025.9
20260505173529 57 70 1.0 3.0 0.00 0.00 0.00 76 1025.9
20260505173329 57 65 1.0 5.0 0.00 0.00 0.00 76 1026.0
20260505173129 57 65 2.0 5.0 0.00 0.00 0.00 76 1026.0
20260505172928 57 63 2.0 5.0 0.00 0.00 0.00 77 1026.0
20260505172729 57 114 2.0 5.0 0.00 0.00 0.00 77 1026.0
20260505172527 57 120 2.0 5.0 0.00 0.00 0.00 77 1025.9
20260505172328 56 87 1.0 4.0 0.00 0.00 0.00 78 1025.9
20260505172127 56 86 1.0 4.0 0.00 0.00 0.00 78 1025.9
20260505171927 56 87 2.0 4.0 0.00 0.00 0.00 78 1025.9
20260505171727 56 72 1.0 4.0 0.00 0.00 0.00 78 1025.9
20260505171527 56 63 0.0 3.0 0.00 0.00 0.00 78 1025.9
20260505171328 56 62 0.0 3.0 0.00 0.00 0.00 78 1025.9
20260505171129 56 62 1.0 3.0 0.00 0.00 0.00 78 1025.9
20260505170928 56 61 1.0 3.0 0.00 0.00 0.00 78 1025.8
20260505170728 56 100 0.0 2.0 0.00 0.00 0.00 79 1025.9
20260505170528 56 135 0.0 0.0 0.00 0.00 0.00 79 1025.9
20260505170328 55 135 0.0 0.0 0.00 0.00 0.00 79 1025.9
20260505170129 55 137 0.0 0.0 0.00 0.00 0.00 79 1025.9
20260505165928 55 137 0.0 0.0 0.00 0.00 0.00 79 1025.9
20260505165730 55 137 0.0 0.0 0.00 0.00 0.00 79 1025.8
20260505165528 55 137 0.0 0.0 0.00 0.00 0.00 79 1025.9
20260505165328 55 137 0.0 0.0 0.00 0.00 0.00 79 1025.9
20260505165128 55 137 0.0 0.0 0.00 0.00 0.00 78 1025.9
20260505164927 55 137 0.0 0.0 0.00 0.00 0.00 78 1025.8
20260505164727 55 137 0.0 0.0 0.00 0.00 0.00 78 1025.9
20260505164529 55 137 0.0 0.0 0.00 0.00 0.00 78 1025.9
20260505164329 55 137 0.0 0.0 0.00 0.00 0.00 78 1025.9
20260505164128 55 137 0.0 0.0 0.00 0.00 0.00 78 1025.8
20260505163928 55 137 0.0 0.0 0.00 0.00 0.00 79 1025.9
20260505163727 55 137 0.0 0.0 0.00 0.00 0.00 78 1025.8
20260505163527 55 137 0.0 0.0 0.00 0.00 0.00 78 1025.8
20260505163327 55 137 0.0 0.0 0.00 0.00 0.00 78 1025.8
20260505163128 55 137 0.0 0.0 0.00 0.00 0.00 79 1025.8
20260505162929 55 137 0.0 0.0 0.00 0.00 0.00 79 1025.8
20260505162727 55 137 0.0 0.0 0.00 0.00 0.00 79 1025.8
20260505162526 55 137 0.0 0.0 0.00 0.00 0.00 79 1025.8
20260505162327 55 137 0.0 0.0 0.00 0.00 0.00 79 1025.8
20260505162127 55 137 0.0 0.0 0.00 0.00 0.00 79 1025.7
20260505161927 55 137 0.0 0.0 0.00 0.00 0.00 79 1025.7
20260505161727 55 137 0.0 0.0 0.00 0.00 0.00 79 1025.6
20260505161528 55 137 0.0 0.0 0.00 0.00 0.00 80 1025.6
20260505161327 55 137 0.0 0.0 0.00 0.00 0.00 80 1025.6
20260505161128 0 0.0 0.0 0.00 0.00 0.00 1025.6
20260505160928 0 0.0 0.0 0.00 0.00 0.00 1025.6
20260505160725 0 0.0 0.0 0.00 0.00 0.00 1025.5
20260505160527 0 0.0 0.0 0.00 0.00 0.00 1025.6
20260505153304 54 207 0.0 1.0 0.00 0.00 0.00 84 1025.7
20260505153143 54 207 0.0 1.0 0.00 0.00 0.00 84 1025.7
20260505152904 54 207 0.0 1.0 0.00 0.00 0.00 85 1025.7
20260505152700 54 207 0.0 1.0 0.00 0.00 0.00 84 1025.7
20260505152500 54 207 0.0 1.0 0.00 0.00 0.00 85 1025.6
20260505152259 54 207 0.0 1.0 0.00 0.00 0.00 85 1025.6
20260505152100 54 207 0.0 0.0 0.00 0.00 0.00 84 1025.7
20260505151900 54 207 0.0 0.0 0.00 0.00 0.00 84 1025.6
20260505151658 54 207 0.0 0.0 0.00 0.00 0.00 84 1025.6
20260505151458 54 207 0.0 0.0 0.00 0.00 0.00 84 1025.7
20260505151257 54 207 0.0 0.0 0.00 0.00 0.00 84 1025.6
20260505151057 54 207 0.0 0.0 0.00 0.00 0.00 83 1025.6
20260505150856 54 207 0.0 0.0 0.00 0.00 0.00 83 1025.6
20260505150656 54 207 0.0 0.0 0.00 0.00 0.00 83 1025.6
20260505150455 54 207 0.0 0.0 0.00 0.00 0.00 83 1025.6
20260505150255 54 207 0.0 0.0 0.00 0.00 0.00 83 1025.6
20260505140650 56 207 0.0 0.0 0.00 0.00 0.00 80 1025.7
20260505140450 57 207 0.0 0.0 0.00 0.00 0.00 80 1025.7
20260505140250 57 207 0.0 0.0 0.00 0.00 0.00 80 1025.8
20260505130244 58 207 0.0 0.0 0.00 0.00 0.00 79 1025.6
20260505125041 59 207 0.0 0.0 0.00 0.00 0.00 79 1025.6
20260505124840 59 207 0.0 0.0 0.00 0.00 0.00 78 1025.7
20260505124641 59 207 0.0 0.0 0.00 0.00 0.00 78 1025.6
20260505124440 59 207 0.0 0.0 0.00 0.00 0.00 78 1025.6
20260505124236 59 207 0.0 0.0 0.00 0.00 0.00 78 1025.6
20260505124035 59 207 0.0 0.0 0.00 0.00 0.00 78 1025.6
20260505123835 59 207 0.0 0.0 0.00 0.00 0.00 78 1025.6
20260505123635 59 207 0.0 0.0 0.00 0.00 0.00 78 1025.6
20260505123434 60 207 0.0 0.0 0.00 0.00 0.00 78 1025.5
20260505123234 60 207 0.0 0.0 0.00 0.00 0.00 78 1025.5
20260505123034 60 207 0.0 0.0 0.00 0.00 0.00 78 1025.6
20260505122833 60 207 0.0 0.0 0.00 0.00 0.00 78 1025.6
20260505122633 60 207 0.0 0.0 0.00 0.00 0.00 78 1025.6
20260505122432 60 207 0.0 0.0 0.00 0.00 0.00 78 1025.6
20260505122232 60 207 0.0 0.0 0.00 0.00 0.00 77 1025.5
20260505122031 60 207 0.0 0.0 0.00 0.00 0.00 77 1025.5
20260505121832 60 207 0.0 0.0 0.00 0.00 0.00 77 1025.5
20260505121631 60 207 0.0 0.0 0.00 0.00 0.00 77 1025.5
20260505121432 61 207 0.0 0.0 0.00 0.00 0.00 77 1025.5
20260505121230 61 207 0.0 0.0 0.00 0.00 0.00 77 1025.5
20260505121031 61 207 0.0 0.0 0.00 0.00 0.00 77 1025.4
20260505120831 61 207 0.0 0.0 0.00 0.00 0.00 77 1025.5
20260505120631 61 207 0.0 0.0 0.00 0.00 0.00 77 1025.4
20260505120431 61 207 0.0 0.0 0.00 0.00 0.00 77 1025.4
20260505120227 61 207 0.0 0.0 0.00 0.00 0.00 77 1025.4
20260505120028 61 207 0.0 0.0 0.00 0.00 0.00 77 1025.5
20260505115827 61 207 0.0 0.0 0.00 0.00 0.00 77 1025.4
20260505115626 61 207 0.0 0.0 0.00 0.00 0.00 77 1025.4
20260505115426 61 207 0.0 0.0 0.00 0.00 0.00 77 1025.4
20260505115225 62 207 0.0 0.0 0.00 0.00 0.00 77 1025.4
20260505115026 62 207 0.0 0.0 0.00 0.00 0.00 77 1025.4
20260505114825 62 207 0.0 0.0 0.00 0.00 0.00 77 1025.5
20260505114624 62 207 0.0 0.0 0.00 0.00 0.00 76 1025.4
20260505114423 62 207 0.0 0.0 0.00 0.00 0.00 77 1025.5
20260505114224 62 207 0.0 0.0 0.00 0.00 0.00 76 1025.4
20260505114024 62 207 0.0 0.0 0.00 0.00 0.00 76 1025.5
20260505113823 62 207 0.0 0.0 0.00 0.00 0.00 76 1025.4
20260505113622 62 207 0.0 1.0 0.00 0.00 0.00 76 1025.4
20260505113421 62 207 0.0 1.0 0.00 0.00 0.00 76 1025.4
20260505113221 62 207 0.0 1.0 0.00 0.00 0.00 75 1025.3
20260505113021 62 207 0.0 1.0 0.00 0.00 0.00 75 1025.4
20260505112820 62 207 0.0 1.0 0.00 0.00 0.00 75 1025.4
20260505112620 62 207 0.0 1.0 0.00 0.00 0.00 75 1025.4
20260505112417 63 207 0.0 1.0 0.00 0.00 0.00 75 1025.4
20260505112217 63 207 0.0 1.0 0.00 0.00 0.00 75 1025.3
20260505112015 63 207 0.0 1.0 0.00 0.00 0.00 75 1025.4
20260505111815 63 207 0.0 1.0 0.00 0.00 0.00 74 1025.4
20260505111615 63 207 0.0 1.0 0.00 0.00 0.00 74 1025.3
20260505111415 63 207 0.0 0.0 0.00 0.00 0.00 75 1025.3
20260505111214 63 207 0.0 0.0 0.00 0.00 0.00 75 1025.4
20260505111013 63 207 0.0 0.0 0.00 0.00 0.00 75 1025.3
20260505110813 63 207 0.0 0.0 0.00 0.00 0.00 74 1025.3
20260505110613 63 207 0.0 0.0 0.00 0.00 0.00 74 1025.3
20260505110412 63 207 0.0 0.0 0.00 0.00 0.00 74 1025.3
20260505110211 63 207 0.0 1.0 0.00 0.00 0.00 74 1025.3
20260505102202 65 207 0.0 1.0 0.00 0.00 0.00 71 1024.7
20260505102004 65 207 0.0 1.0 0.00 0.00 0.00 71 1024.7
20260505101802 65 207 0.0 2.0 0.00 0.00 0.00 71 1024.7
20260505101602 65 207 0.0 4.0 0.00 0.00 0.00 71 1024.7
20260505101402 65 207 0.0 4.0 0.00 0.00 0.00 71 1024.7
20260505101202 65 207 0.0 4.0 0.00 0.00 0.00 71 1024.7
20260505101001 65 207 0.0 4.0 0.00 0.00 0.00 70 1024.7
20260505100802 66 207 1.0 4.0 0.00 0.00 0.00 70 1024.6
20260505100602 66 207 1.0 4.0 0.00 0.00 0.00 70 1024.6
20260505100402 66 207 0.0 4.0 0.00 0.00 0.00 70 1024.6
20260505100202 66 207 0.0 4.0 0.00 0.00 0.00 70 1024.6
20260505100003 66 207 1.0 4.0 0.00 0.00 0.00 69 1024.6
20260505095802 66 207 2.0 4.0 0.00 0.00 0.00 69 1024.6
20260505095602 66 206 3.0 7.0 0.00 0.00 0.00 68 1024.6
20260505095402 66 193 1.0 7.0 0.00 0.00 0.00 68 1024.5
20260505095203 66 193 0.0 7.0 0.00 0.00 0.00 68 1024.6
20260505095003 66 193 0.0 7.0 0.00 0.00 0.00 67 1024.5
20260505094805 67 193 1.0 7.0 0.00 0.00 0.00 67 1024.5
20260505094602 67 221 1.0 6.0 0.00 0.00 0.00 67 1024.5
20260505094402 67 218 2.0 6.0 0.00 0.00 0.00 67 1024.5
20260505094202 67 217 3.0 6.0 0.00 0.00 0.00 68 1024.5
20260505094003 67 217 2.0 7.0 0.00 0.00 0.00 67 1024.5
20260505093803 67 213 3.0 7.0 0.00 0.00 0.00 67 1024.4
20260505093602 67 213 2.0 7.0 0.00 0.00 0.00 67 1024.4
20260505093402 67 213 4.0 7.0 0.00 0.00 0.00 67 1024.4
20260505093202 67 213 3.0 7.0 0.00 0.00 0.00 67 1024.4
20260505093003 67 228 3.0 7.0 0.00 0.00 0.00 66 1024.4
20260505092803 67 189 3.0 7.0 0.00 0.00 0.00 66 1024.4
20260505092602 68 207 2.0 7.0 0.00 0.00 0.00 66 1024.4
20260505092403 68 179 2.0 7.0 0.00 0.00 0.00 66 1024.4
20260505092202 68 211 2.0 7.0 0.00 0.00 0.00 67 1024.4
20260505092002 68 211 4.0 7.0 0.00 0.00 0.00 67 1024.3
20260505091802 68 218 3.0 6.0 0.00 0.00 0.00 67 1024.3
20260505091602 68 216 3.0 9.0 0.00 0.00 0.00 67 1024.3
20260505091400 68 213 3.0 9.0 0.00 0.00 0.00 66 1024.3
20260505091159 68 209 3.0 9.0 0.00 0.00 0.00 66 1024.3
20260505090958 68 221 2.0 9.0 0.00 0.00 0.00 66 1024.2
20260505090758 68 220 5.0 10.0 0.00 0.00 0.00 65 1024.3
20260505090558 69 209 3.0 10.0 0.00 0.00 0.00 65 1024.3
20260505090358 69 209 4.0 10.0 0.00 0.00 0.00 65 1024.2
20260505090157 69 210 5.0 10.0 0.00 0.00 0.00 65 1024.2
20260505085957 69 230 6.0 10.0 0.00 0.00 0.00 65 1024.1
20260505085756 69 223 3.0 10.0 0.00 0.00 0.00 64 1024.2
20260505085556 69 207 2.0 11.0 0.00 0.00 0.00 64 1024.2
20260505085355 69 211 3.0 11.0 0.00 0.00 0.00 64 1024.2
20260505085154 69 214 4.0 11.0 0.00 0.00 0.00 64 1024.2
20260505084954 69 197 3.0 11.0 0.00 0.00 0.00 64 1024.1
20260505084754 69 206 4.0 11.0 0.00 0.00 0.00 64 1024.1
20260505084554 69 213 4.0 11.0 0.00 0.00 0.00 63 1024.2
20260505084353 69 211 5.0 11.0 0.00 0.00 0.00 63 1024.2
20260505084152 69 207 4.0 11.0 0.00 0.00 0.00 63 1024.1
20260505083953 70 152 5.0 11.0 0.00 0.00 0.00 64 1024.1
20260505083751 70 216 5.0 9.0 0.00 0.00 0.00 63 1024.1
20260505083545 70 209 5.0 9.0 0.00 0.00 0.00 63 1024.0
20260505083346 70 209 5.0 11.0 0.00 0.00 0.00 63 1024.1
20260505083139 70 163 5.0 11.0 0.00 0.00 0.00 63 1024.0
20260505082941 70 207 4.0 11.0 0.00 0.00 0.00 63 1024.0
20260505082738 70 220 6.0 11.0 0.00 0.00 0.00 62 1024.1
20260505082535 70 210 6.0 11.0 0.00 0.00 0.00 62 1024.1
20260505082334 70 225 5.0 12.0 0.00 0.00 0.00 62 1024.1
20260505082134 70 220 2.0 12.0 0.00 0.00 0.00 62 1024.0
20260505081933 71 217 6.0 12.0 0.00 0.00 0.00 61 1024.1
20260505081734 71 213 6.0 12.0 0.00 0.00 0.00 61 1024.1
20260505081531 71 238 7.0 13.0 0.00 0.00 0.00 61 1024.1
20260505081331 71 163 4.0 13.0 0.00 0.00 0.00 61 1024.1
20260505081131 71 206 3.0 13.0 0.00 0.00 0.00 61 1024.1
20260505080933 71 210 6.0 13.0 0.00 0.00 0.00 60 1024.0
20260505080732 71 224 6.0 13.0 0.00 0.00 0.00 58 1024.0
20260505080530 71 220 6.0 12.0 0.00 0.00 0.00 58 1024.0
20260505080331 71 237 6.0 12.0 0.00 0.00 0.00 58 1024.0
20260505080131 71 207 7.0 12.0 0.00 0.00 0.00 58 1024.0
20260505075931 71 223 7.0 12.0 0.00 0.00 0.00 59 1023.9
20260505075732 72 209 6.0 11.0 0.00 0.00 0.00 58 1023.9
20260505075532 72 217 7.0 11.0 0.00 0.00 0.00 58 1024.0
20260505075331 72 228 5.0 11.0 0.00 0.00 0.00 60 1024.0
20260505075131 72 213 6.0 11.0 0.00 0.00 0.00 60 1023.9
20260505074931 72 224 6.0 11.0 0.00 0.00 0.00 60 1023.9
20260505074731 72 231 6.0 11.0 0.00 0.00 0.00 60 1023.9
20260505074531 72 252 3.0 11.0 0.00 0.00 0.00 60 1023.9
20260505074331 72 207 4.0 11.0 0.00 0.00 0.00 60 1023.8
20260505074131 72 210 3.0 11.0 0.00 0.00 0.00 60 1023.9
20260505073931 72 218 5.0 11.0 0.00 0.00 0.00 59 1023.9
20260505073731 72 230 4.0 10.0 0.00 0.00 0.00 59 1023.9
20260505073531 72 224 5.0 10.0 0.00 0.00 0.00 58 1023.9
20260505073331 72 214 5.0 10.0 0.00 0.00 0.00 58 1023.9
20260505073130 72 211 6.0 10.0 0.00 0.00 0.00 58 1023.8
20260505072931 73 216 6.0 10.0 0.00 0.00 0.00 58 1023.9
20260505072731 73 216 6.0 10.0 0.00 0.00 0.00 57 1023.9
20260505072531 73 218 6.0 10.0 0.00 0.00 0.00 56 1023.9
20260505072330 73 220 6.0 10.0 0.00 0.00 0.00 56 1023.8
20260505072126 73 213 5.0 10.0 0.00 0.00 0.00 57 1023.8
20260505071927 73 228 5.0 10.0 0.00 0.00 0.00 58 1023.8
20260505071726 73 225 5.0 10.0 0.00 0.00 0.00 58 1023.8
20260505071525 73 231 6.0 12.0 0.00 0.00 0.00 58 1023.8
20260505071325 73 216 6.0 12.0 0.00 0.00 0.00 57 1023.8
20260505071124 73 234 4.0 12.0 0.00 0.00 0.00 57 1023.8
20260505070925 74 225 6.0 12.0 0.00 0.00 0.00 56 1023.8
20260505070724 74 211 5.0 12.0 0.00 0.00 0.00 54 1023.8
20260505070523 74 221 6.0 11.0 0.00 0.00 0.00 53 1023.9
20260505070306 74 218 7.0 11.0 0.00 0.00 0.00 53 1023.8
20260505070104 75 220 5.0 11.0 0.00 0.00 0.00 53 1023.8
20260505065905 75 223 5.0 11.0 0.00 0.00 0.00 52 1023.8
20260505065706 75 203 6.0 11.0 0.00 0.00 0.00 51 1023.8
20260505065506 76 202 6.0 10.0 0.00 0.00 0.00 51 1023.9
20260505065305 76 217 3.0 12.0 0.00 0.00 0.00 52 1023.8
20260505065105 76 217 3.0 12.0 0.00 0.00 0.00 51 1023.7
20260505064905 77 213 4.0 12.0 0.00 0.00 0.00 50 1023.8
20260505064705 77 216 6.0 12.0 0.00 0.00 0.00 49 1023.9
20260505064505 78 217 6.0 12.0 0.00 0.00 0.00 48 1023.8
20260505064300 78 221 5.0 11.0 0.00 0.00 0.00 47 1023.8
20260505064101 78 241 2.0 9.0 0.00 0.00 0.00 46 1023.8
20260505063900 78 216 1.0 5.0 0.00 0.00 0.00 45 1023.8
20260505063659 78 216 1.0 5.0 0.00 0.00 0.00 44 1023.8
20260505063459 78 216 1.0 5.0 0.00 0.00 0.00 44 1023.8
20260505063258 78 216 3.0 5.0 0.00 0.00 0.00 43 1023.8
20260505063058 78 216 4.0 5.0 0.00 0.00 0.00 44 1023.8
20260505062857 78 216 1.0 4.0 0.00 0.00 0.00 45 1023.8
20260505062657 78 216 0.0 2.0 0.00 0.00 0.00 44 1023.8
20260505062457 78 216 1.0 2.0 0.00 0.00 0.00 44 1023.8
20260505062256 78 216 0.0 4.0 0.00 0.00 0.00 45 1023.9
20260505062056 78 216 0.0 5.0 0.00 0.00 0.00 44 1023.8
20260505061855 78 216 0.0 5.0 0.00 0.00 0.00 45 1023.8
20260505061655 78 216 0.0 5.0 0.00 0.00 0.00 45 1023.8
20260505061451 78 216 1.0 5.0 0.00 0.00 0.00 45 1023.8
20260505061252 78 217 1.0 5.0 0.00 0.00 0.00 45 1023.8
20260505061051 78 216 2.0 3.0 0.00 0.00 0.00 45 1023.7
20260505060850 78 216 1.0 3.0 0.00 0.00 0.00 45 1023.8
20260505060650 78 216 1.0 3.0 0.00 0.00 0.00 46 1023.9
20260505060450 77 217 1.0 4.0 0.00 0.00 0.00 46 1023.8
20260505060249 77 217 1.0 4.0 0.00 0.00 0.00 46 1023.9
20260505060049 77 218 1.0 4.0 0.00 0.00 0.00 46 1023.8
20260505055849 77 218 2.0 4.0 0.00 0.00 0.00 45 1023.8
20260505055647 77 218 2.0 4.0 0.00 0.00 0.00 45 1023.9
20260505055447 77 218 2.0 4.0 0.00 0.00 0.00 45 1023.9
20260505055247 77 218 0.0 5.0 0.00 0.00 0.00 46 1023.9
20260505055046 77 228 0.0 5.0 0.00 0.00 0.00 46 1023.9
20260505054846 77 228 0.0 5.0 0.00 0.00 0.00 46 1023.9
20260505054646 77 228 1.0 5.0 0.00 0.00 0.00 46 1024.0
20260505054445 77 228 3.0 5.0 0.00 0.00 0.00 44 1023.9
20260505054245 78 228 1.0 5.0 0.00 0.00 0.00 43 1023.9
20260505054045 78 228 3.0 5.0 0.00 0.00 0.00 43 1023.9
20260505053844 78 228 3.0 5.0 0.00 0.00 0.00 43 1023.9
20260505053640 78 187 2.0 4.0 0.00 0.00 0.00 43 1023.9
20260505053440 78 159 1.0 3.0 0.00 0.00 0.00 43 1024.0
20260505053241 78 148 1.0 3.0 0.00 0.00 0.00 45 1023.9
20260505053042 78 149 1.0 3.0 0.00 0.00 0.00 44 1024.0
20260505052842 78 149 1.0 3.0 0.00 0.00 0.00 44 1024.0
20260505052641 78 149 0.0 3.0 0.00 0.00 0.00 45 1024.0
20260505052441 78 152 1.0 3.0 0.00 0.00 0.00 46 1024.0
20260505052242 78 152 1.0 3.0 0.00 0.00 0.00 45 1024.0
20260505052041 78 152 1.0 3.0 0.00 0.00 0.00 44 1024.0
20260505051840 78 152 1.0 3.0 0.00 0.00 0.00 45 1024.1
20260505051641 78 152 1.0 4.0 0.00 0.00 0.00 46 1024.1
20260505051441 78 152 1.0 4.0 0.00 0.00 0.00 46 1024.1
20260505051240 78 148 0.0 4.0 0.00 0.00 0.00 46 1024.1
20260505051040 78 72 2.0 4.0 0.00 0.00 0.00 45 1024.2
20260505050837 78 73 2.0 4.0 0.00 0.00 0.00 47 1024.2
20260505050637 78 77 1.0 4.0 0.00 0.00 0.00 47 1024.2
20260505050436 77 84 1.0 3.0 0.00 0.00 0.00 47 1024.3
20260505050237 77 72 2.0 3.0 0.00 0.00 0.00 47 1024.3
20260505041617 75 39 2.0 4.0 0.00 0.00 0.00 50 1025.1
20260505041416 75 39 1.0 4.0 0.00 0.00 0.00 50 1025.1
20260505041216 75 39 1.0 4.0 0.00 0.00 0.00 51 1025.1
20260505041016 75 39 2.0 4.0 0.00 0.00 0.00 50 1025.2
20260505040815 75 39 2.0 4.0 0.00 0.00 0.00 50 1025.1
20260505040614 75 37 1.0 4.0 0.00 0.00 0.00 51 1025.2
20260505040415 75 37 2.0 4.0 0.00 0.00 0.00 50 1025.2
20260505040214 75 37 2.0 4.0 0.00 0.00 0.00 50 1025.2
20260505040015 75 37 2.0 4.0 0.00 0.00 0.00 50 1025.2
20260505035805 75 37 3.0 4.0 0.00 0.00 0.00 50 1025.2
20260505035605 75 34 2.0 5.0 0.00 0.00 0.00 50 1025.3
20260505035405 75 34 2.0 5.0 0.00 0.00 0.00 51 1025.3
20260505035205 75 34 2.0 5.0 0.00 0.00 0.00 50 1025.3
20260505035005 75 35 3.0 5.0 0.00 0.00 0.00 50 1025.3
20260505034806 75 35 3.0 5.0 0.00 0.00 0.00 51 1025.4
20260505034605 75 24 2.0 5.0 0.00 0.00 0.00 51 1025.3
20260505034405 75 15 2.0 3.0 0.00 0.00 0.00 52 1025.4
20260505034205 75 15 1.0 3.0 0.00 0.00 0.00 52 1025.4
20260505034005 75 15 1.0 3.0 0.00 0.00 0.00 53 1025.5
20260505033805 75 13 2.0 3.0 0.00 0.00 0.00 53 1025.5
20260505033605 74 13 2.0 3.0 0.00 0.00 0.00 53 1025.5
20260505033404 74 8 1.0 4.0 0.00 0.00 0.00 53 1025.5
20260505033205 74 8 1.0 5.0 0.00 0.00 0.00 53 1025.5
20260505033005 74 8 0.0 5.0 0.00 0.00 0.00 54 1025.5
20260505032755 74 8 1.0 5.0 0.00 0.00 0.00 53 1025.6
20260505032555 74 8 2.0 5.0 0.00 0.00 0.00 53 1025.6
20260505032355 73 8 3.0 5.0 0.00 0.00 0.00 53 1025.6
20260505032154 73 7 3.0 5.0 0.00 0.00 0.00 53 1025.6
20260505031953 73 61 2.0 4.0 0.00 0.00 0.00 54 1025.6
20260505031753 73 58 3.0 4.0 0.00 0.00 0.00 54 1025.7
20260505031553 73 61 2.0 4.0 0.00 0.00 0.00 54 1025.7
20260505031352 73 61 1.0 6.0 0.00 0.00 0.00 55 1025.7
20260505031151 73 62 2.0 6.0 0.00 0.00 0.00 55 1025.7
20260505030948 73 61 2.0 6.0 0.00 0.00 0.00 54 1025.7
20260505030748 73 63 2.0 6.0 0.00 0.00 0.00 55 1025.7
20260505030547 73 29 4.0 6.0 0.00 0.00 0.00 54 1025.7
20260505030346 73 68 4.0 6.0 0.00 0.00 0.00 54 1025.7
20260505030146 73 51 4.0 6.0 0.00 0.00 0.00 54 1025.7
20260505025946 73 52 2.0 6.0 0.00 0.00 0.00 54 1025.7
20260505025745 73 34 3.0 6.0 0.00 0.00 0.00 55 1025.8
20260505025545 73 32 3.0 6.0 0.00 0.00 0.00 55 1025.8
20260505025344 73 35 3.0 6.0 0.00 0.00 0.00 54 1025.8
20260505025144 73 55 2.0 5.0 0.00 0.00 0.00 54 1025.7
20260505024944 72 52 3.0 5.0 0.00 0.00 0.00 55 1025.8
20260505024744 72 46 2.0 4.0 0.00 0.00 0.00 56 1025.8
20260505024543 72 28 2.0 4.0 0.00 0.00 0.00 56 1025.8
20260505024342 72 27 2.0 4.0 0.00 0.00 0.00 57 1025.8
20260505024142 72 27 2.0 4.0 0.00 0.00 0.00 57 1025.8
20260505023941 72 27 2.0 5.0 0.00 0.00 0.00 57 1025.8
20260505023741 71 27 2.0 6.0 0.00 0.00 0.00 57 1025.8
20260505023541 71 28 1.0 6.0 0.00 0.00 0.00 58 1025.9
20260505023340 71 28 2.0 6.0 0.00 0.00 0.00 58 1025.9
20260505023137 71 31 2.0 6.0 0.00 0.00 0.00 58 1025.9
20260505022937 71 32 3.0 6.0 0.00 0.00 0.00 58 1026.0
20260505022736 70 330 2.0 5.0 0.00 0.00 0.00 59 1026.0
20260505022536 70 1 2.0 5.0 0.00 0.00 0.00 60 1025.9
20260505022336 70 1 3.0 5.0 0.00 0.00 0.00 60 1026.0
20260505022136 70 68 1.0 5.0 0.00 0.00 0.00 60 1026.0
20260505021936 69 68 2.0 5.0 0.00 0.00 0.00 60 1025.9
20260505021737 69 69 3.0 5.0 0.00 0.00 0.00 61 1026.0
20260505021534 69 25 2.0 5.0 0.00 0.00 0.00 61 1025.9
20260505021334 69 62 3.0 5.0 0.00 0.00 0.00 61 1026.0
20260505021134 69 61 3.0 5.0 0.00 0.00 0.00 61 1026.0
20260505020934 69 65 3.0 5.0 0.00 0.00 0.00 61 1026.0
20260505020734 68 27 3.0 6.0 0.00 0.00 0.00 61 1026.0
20260505020535 68 25 2.0 6.0 0.00 0.00 0.00 62 1026.0
20260505020334 68 24 3.0 6.0 0.00 0.00 0.00 62 1026.1
20260505020133 68 21 3.0 6.0 0.00 0.00 0.00 63 1026.0
20260505015933 68 14 3.0 6.0 0.00 0.00 0.00 64 1026.0
20260505015734 68 77 2.0 5.0 0.00 0.00 0.00 64 1026.0
20260505015534 67 7 2.0 5.0 0.00 0.00 0.00 65 1026.1
20260505015333 67 6 2.0 7.0 0.00 0.00 0.00 65 1026.0
20260505015133 67 6 3.0 7.0 0.00 0.00 0.00 65 1026.1
20260505014934 67 59 2.0 7.0 0.00 0.00 0.00 65 1026.0
20260505014735 66 59 4.0 7.0 0.00 0.00 0.00 66 1026.1
20260505014535 66 45 2.0 7.0 0.00 0.00 0.00 67 1026.0
20260505014335 66 46 2.0 6.0 0.00 0.00 0.00 67 1026.1
20260505014135 66 51 3.0 6.0 0.00 0.00 0.00 67 1026.1
20260505013936 65 69 3.0 6.0 0.00 0.00 0.00 67 1026.1
20260505013735 65 70 2.0 6.0 0.00 0.00 0.00 68 1026.1
20260505013535 65 58 3.0 6.0 0.00 0.00 0.00 68 1026.1
20260505013334 65 24 2.0 6.0 0.00 0.00 0.00 69 1026.1
20260505013131 64 45 2.0 5.0 0.00 0.00 0.00 70 1026.1
20260505012931 64 55 3.0 5.0 0.00 0.00 0.00 70 1026.2
20260505012731 64 69 3.0 5.0 0.00 0.00 0.00 70 1026.2
20260505012531 63 68 2.0 4.0 0.00 0.00 0.00 72 1026.2
20260505012331 63 69 2.0 6.0 0.00 0.00 0.00 72 1026.2
20260505012132 63 72 2.0 6.0 0.00 0.00 0.00 73 1026.2
20260505011930 62 73 2.0 6.0 0.00 0.00 0.00 73 1026.2
20260505011730 62 80 2.0 6.0 0.00 0.00 0.00 74 1026.2
20260505011531 62 80 3.0 6.0 0.00 0.00 0.00 75 1026.3
20260505011331 61 61 2.0 5.0 0.00 0.00 0.00 76 1026.2
20260505011131 61 56 2.0 5.0 0.00 0.00 0.00 76 1026.3
20260505010932 60 56 2.0 5.0 0.00 0.00 0.00 77 1026.2
20260505010731 60 58 2.0 5.0 0.00 0.00 0.00 78 1026.2
20260505010533 60 58 3.0 5.0 0.00 0.00 0.00 79 1026.2
20260505010329 59 69 2.0 4.0 0.00 0.00 0.00 79 1026.2
20260505010129 59 52 2.0 4.0 0.00 0.00 0.00 80 1026.3
20260505005929 59 63 3.0 4.0 0.00 0.00 0.00 81 1026.3
20260505005728 58 72 2.0 5.0 0.00 0.00 0.00 82 1026.2
20260505005527 58 69 2.0 6.0 0.00 0.00 0.00 82 1026.2
20260505005328 58 69 2.0 6.0 0.00 0.00 0.00 83 1026.2
20260505005126 57 69 2.0 6.0 0.00 0.00 0.00 83 1026.2
20260505004926 57 69 2.0 6.0 0.00 0.00 0.00 84 1026.2
20260505004726 57 58 2.0 6.0 0.00 0.00 0.00 84 1026.2
20260505004526 57 101 1.0 6.0 0.00 0.00 0.00 84 1026.2
20260505004313 56 101 2.0 6.0 0.00 0.00 0.00 85 1026.3
20260505004113 56 103 2.0 6.0 0.00 0.00 0.00 86 1026.2
20260505003913 56 58 2.0 4.0 0.00 0.00 0.00 86 1026.2
20260505003712 56 45 1.0 4.0 0.00 0.00 0.00 87 1026.2
20260505003511 56 45 1.0 4.0 0.00 0.00 0.00 87 1026.1
20260505003308 55 45 1.0 4.0 0.00 0.00 0.00 87 1026.1
20260505003108 55 45 2.0 5.0 0.00 0.00 0.00 88 1026.0
20260505002907 55 41 2.0 5.0 0.00 0.00 0.00 88 1026.0
20260505002708 55 55 2.0 5.0 0.00 0.00 0.00 89 1026.0
20260505002506 54 53 2.0 5.0 0.00 0.00 0.00 89 1025.9
20260505002306 54 62 4.0 5.0 0.00 0.00 0.00 89 1025.8
20260505002105 54 49 1.0 3.0 0.00 0.00 0.00 90 1025.8
20260505001905 54 44 1.0 3.0 0.00 0.00 0.00 90 1025.8
20260505001705 54 38 1.0 3.0 0.00 0.00 0.00 90 1025.6
20260505001505 53 38 2.0 3.0 0.00 0.00 0.00 90 1025.7
20260505001304 53 61 0.0 2.0 0.00 0.00 0.00 91 1025.6
20260505001107 53 61 1.0 2.0 0.00 0.00 0.00 91 1025.6
20260505000905 53 61 1.0 3.0 0.00 0.00 0.00 91 1025.5
20260505000707 53 61 1.0 3.0 0.00 0.00 0.00 91 1025.6
20260505000506 52 61 0.0 3.0 0.00 0.00 0.00 91 1025.6
20260505000302 52 61 0.0 3.0 0.00 0.00 0.00 91 1025.7
20260504235901 52 62 0.0 2.0 0.00 0.00 0.00 91 1025.6
20260504235700 52 62 1.0 2.0 0.00 0.00 0.00 91 1025.6
20260504235458 52 55 0.0 2.0 0.00 0.00 0.00 90 1025.6
20260504235256 51 55 0.0 2.0 0.00 0.00 0.00 90 1025.6
20260504235056 51 55 0.0 2.0 0.00 0.00 0.00 90 1025.6
20260504234856 51 55 0.0 2.0 0.00 0.00 0.00 90 1025.6
20260504234655 51 55 0.0 0.0 0.00 0.00 0.00 90 1025.6
20260504234455 51 55 0.0 0.0 0.00 0.00 0.00 90 1025.5
20260504234254 51 55 0.0 0.0 0.00 0.00 0.00 90 1025.5
20260504234054 51 55 0.0 0.0 0.00 0.00 0.00 90 1025.4
20260504233853 51 55 0.0 0.0 0.00 0.00 0.00 89 1025.5
20260504233653 51 55 0.0 0.0 0.00 0.00 0.00 89 1025.5
20260504233453 51 55 0.0 0.0 0.00 0.00 0.00 89 1025.4
20260504233252 50 55 0.0 0.0 0.00 0.00 0.00 89 1025.4
20260504233052 50 56 0.0 0.0 0.00 0.00 0.00 89 1025.4
20260504232852 50 55 0.0 0.0 0.00 0.00 0.00 89 1025.3
20260504232652 50 56 0.0 0.0 0.00 0.00 0.00 88 1025.3
20260504232450 50 56 0.0 0.0 0.00 0.00 0.00 88 1025.3
20260504232250 50 56 0.0 0.0 0.00 0.00 0.00 88 1025.3
20260504232049 50 55 0.0 0.0 0.00 0.00 0.00 88 1025.2
20260504231849 50 56 0.0 0.0 0.00 0.00 0.00 88 1025.2
20260504231645 50 56 0.0 0.0 0.00 0.00 0.00 88 1025.2
20260504231445 50 56 0.0 0.0 0.00 0.00 0.00 88 1025.2
20260504231245 51 56 0.0 0.0 0.00 0.00 0.00 88 1025.2
20260504231044 51 56 0.0 0.0 0.00 0.00 0.00 87 1025.1
20260504230844 51 56 0.0 0.0 0.00 0.00 0.00 88 1025.1
20260504230643 51 56 0.0 0.0 0.00 0.00 0.00 87 1025.1
20260504230443 51 56 0.0 0.0 0.00 0.00 0.00 88 1025.1
20260504230242 51 56 0.0 0.0 0.00 0.00 0.00 88 1025.1
20260504230043 51 56 0.0 0.0 0.00 0.00 0.00 88 1025.1
20260504225833 51 56 0.0 0.0 0.00 0.00 0.00 88 1025.1
20260504225631 51 56 0.0 0.0 0.00 0.00 0.00 87 1025.0
20260504225431 51 56 0.0 0.0 0.00 0.00 0.00 87 1024.9
20260504225232 51 56 0.0 0.0 0.00 0.00 0.00 87 1025.0
20260504225032 51 56 0.0 0.0 0.00 0.00 0.00 88 1024.9
20260504224831 51 56 0.0 0.0 0.00 0.00 0.00 88 1024.9
20260504224631 52 56 0.0 0.0 0.00 0.00 0.00 88 1024.9
20260504224430 52 56 0.0 0.0 0.00 0.00 0.00 88 1024.8
20260504224230 52 56 0.0 0.0 0.00 0.00 0.00 88 1024.8
20260504224029 52 56 0.0 0.0 0.00 0.00 0.00 88 1024.8
20260504223829 52 55 0.0 0.0 0.00 0.00 0.00 88 1024.8
20260504223629 52 55 0.0 0.0 0.00 0.00 0.00 88 1024.7
20260504223429 52 55 0.0 0.0 0.00 0.00 0.00 88 1024.7
20260504223230 52 55 0.0 0.0 0.00 0.00 0.00 88 1024.7
20260504223029 52 55 0.0 3.0 0.00 0.00 0.00 88 1024.7
20260504222829 52 55 0.0 3.0 0.00 0.00 0.00 88 1024.6
20260504222629 52 55 0.0 3.0 0.00 0.00 0.00 88 1024.6
20260504222429 52 55 0.0 3.0 0.00 0.00 0.00 88 1024.5
20260504222229 52 55 0.0 3.0 0.00 0.00 0.00 88 1024.5
20260504222029 52 53 0.0 2.0 0.00 0.00 0.00 88 1024.5
20260504221829 52 53 0.0 2.0 0.00 0.00 0.00 88 1024.5
20260504221629 52 48 0.0 2.0 0.00 0.00 0.00 88 1024.4
20260504221428 52 48 0.0 2.0 0.00 0.00 0.00 88 1024.5
20260504221229 52 48 0.0 2.0 0.00 0.00 0.00 88 1024.4
20260504221029 52 48 0.0 1.0 0.00 0.00 0.00 88 1024.4
20260504220824 52 48 0.0 1.0 0.00 0.00 0.00 88 1024.4
20260504220624 52 48 0.0 1.0 0.00 0.00 0.00 88 1024.4
20260504220424 52 48 0.0 1.0 0.00 0.00 0.00 88 1024.4
20260504220221 52 48 0.0 1.0 0.00 0.00 0.00 88 1024.4
20260504220020 52 48 0.0 1.0 0.00 0.00 0.00 88 1024.4
20260504215805 52 48 0.0 1.0 0.00 0.00 0.00 88 1024.4
20260504215604 52 48 0.0 1.0 0.00 0.00 0.00 88 1024.4
20260504215405 52 48 0.0 1.0 0.00 0.00 0.00 88 1024.3
20260504215205 52 48 0.0 1.0 0.00 0.00 0.00 88 1024.3
20260504215005 52 48 0.0 1.0 0.00 0.00 0.00 88 1024.3
20260504214806 52 48 0.0 2.0 0.00 0.00 0.00 88 1024.4
20260504214604 52 48 0.0 2.0 0.00 0.00 0.00 88 1024.3
20260504214404 52 48 0.0 2.0 0.00 0.00 0.00 88 1024.3
20260504214204 52 48 0.0 2.0 0.00 0.00 0.00 88 1024.2
20260504214004 52 48 0.0 2.0 0.00 0.00 0.00 88 1024.2
20260504213803 52 48 0.0 1.0 0.00 0.00 0.00 88 1024.2
20260504213603 52 48 0.0 2.0 0.00 0.00 0.00 88 1024.2
20260504213405 52 48 0.0 3.0 0.00 0.00 0.00 88 1024.2
20260504213204 52 48 0.0 3.0 0.00 0.00 0.00 88 1024.2
20260504213005 52 48 0.0 3.0 0.00 0.00 0.00 88 1024.2
20260504212804 52 48 0.0 3.0 0.00 0.00 0.00 88 1024.3
20260504212604 52 48 1.0 3.0 0.00 0.00 0.00 88 1024.3
20260504212404 52 21 0.0 2.0 0.00 0.00 0.00 88 1024.3
20260504212205 52 21 0.0 2.0 0.00 0.00 0.00 88 1024.3
20260504212004 52 21 1.0 2.0 0.00 0.00 0.00 88 1024.4
20260504211804 52 21 0.0 2.0 0.00 0.00 0.00 88 1024.3
20260504211603 52 21 0.0 2.0 0.00 0.00 0.00 88 1024.2
20260504211403 52 21 0.0 2.0 0.00 0.00 0.00 88 1024.3